EW4214 Weather Reports


Display with metric or nautical units.
time (UTC)temp
F
wind
direction
speed
MPH
gust
MPH
rain 1hr
in
rain 24hr
in
rain mn
in
humidity
%
barometer
mb
20260903230231 85 258 0.0 4.0 0.00 0.00 0.00 70 1007.3
20260903225231 85 232 0.0 4.0 0.00 0.00 0.00 69 1007.3
20260903224231 85 43 0.0 5.0 0.00 0.00 0.00 70 1007.1
20260903223232 85 22 0.0 5.0 0.00 0.00 0.00 70 1007.2
20260903222245 85 236 2.0 4.0 0.00 0.00 0.00 70 1007.1
20260903221237 85 234 2.0 4.0 0.00 0.00 0.00 70 1007.0
20260903220231 85 205 2.0 3.0 0.00 0.00 0.00 70 1006.9
20260903215237 85 25 0.0 5.0 0.00 0.00 0.00 70 1006.8
20260903214713 85 246 1.0 5.0 0.00 0.00 0.00 70 1006.8
20260903213238 85 213 3.0 6.0 0.00 0.00 0.00 70 1006.7
20260903212322 85 315 0.0 5.0 0.00 0.00 0.00 70 1006.7
20260903211233 85 274 3.0 5.0 0.00 0.00 0.00 70 1006.6
20260903210233 85 224 2.0 3.0 0.00 0.00 0.00 70 1006.8
20260903205233 85 251 0.0 5.0 0.00 0.00 0.00 71 1006.6
20260903204233 85 37 0.0 3.0 0.00 0.00 0.00 71 1006.6
20260903203232 86 232 2.0 4.0 0.00 0.00 0.00 71 1006.7
20260903202232 86 209 1.0 5.0 0.00 0.00 0.00 71 1006.7
20260903201720 86 231 1.0 4.0 0.00 0.00 0.00 71 1006.8
20260903200234 86 257 0.0 2.0 0.00 0.00 0.00 71 1006.9
20260903195232 86 22 0.0 3.0 0.00 0.00 0.00 71 1007.0
20260903194233 86 336 0.0 1.0 0.00 0.00 0.00 71 1007.2
20260903193236 86 135 0.0 0.0 0.00 0.00 0.00 71 1007.3
20260903192234 86 89 0.0 1.0 0.00 0.00 0.00 71 1007.5
20260903191233 86 75 0.0 2.0 0.00 0.00 0.00 71 1007.6
20260903190716 86 246 0.0 2.0 0.00 0.00 0.00 71 1007.6
20260903185232 86 269 0.0 2.0 0.00 0.00 0.00 71 1007.5
20260903184231 86 223 0.0 4.0 0.00 0.00 0.00 71 1007.7
20260903183226 86 232 2.0 4.0 0.00 0.00 0.00 71 1007.6
20260903182211 86 106 0.0 9.0 0.00 0.00 0.00 72 1007.5
20260903181210 86 222 2.0 3.0 0.00 0.00 0.00 72 1007.4
20260903180209 87 202 1.0 4.0 0.00 0.00 0.00 72 1007.3
20260903175208 87 243 2.0 5.0 0.00 0.00 0.00 72 1007.5
20260903174209 87 242 1.0 4.0 0.00 0.00 0.00 73 1007.4
20260903173208 87 280 0.0 3.0 0.00 0.00 0.00 75 1007.6
20260903172203 87 219 0.0 2.0 0.00 0.00 0.00 76 1007.8
20260903171204 87 224 0.0 2.0 0.00 0.00 0.00 76 1007.8
20260903170203 87 154 0.0 2.0 0.00 0.00 0.00 76 1007.8
20260903165703 87 269 1.0 2.0 0.00 0.00 0.00 76 1007.9
20260903164203 87 50 0.0 1.0 0.00 0.00 0.00 76 1008.0
20260903163205 87 38 0.0 1.0 0.00 0.00 0.00 75 1008.2
20260903162204 87 321 0.0 2.0 0.00 0.00 0.00 75 1008.3
20260903161205 87 193 0.0 1.0 0.00 0.00 0.00 75 1008.4
20260903160208 87 76 0.0 2.0 0.00 0.00 0.00 75 1008.5
20260903160125 87 343 0.0 2.0 0.00 0.00 0.00 74 1008.7
20260903154205 87 102 0.0 2.0 0.00 0.00 0.00 74 1008.6
20260903153204 87 38 0.0 2.0 0.00 0.00 0.00 73 1008.6
20260903152204 87 89 0.0 1.0 0.00 0.00 0.00 73 1008.6
20260903151205 87 229 0.0 2.0 0.00 0.00 0.00 73 1008.5
20260903150202 87 269 0.0 1.0 0.00 0.00 0.00 71 1008.6
20260903145204 87 269 0.0 2.0 0.00 0.00 0.00 73 1008.5
20260903144701 88 32 0.0 2.0 0.00 0.00 0.00 72 1008.1
20260903143338 88 62 0.0 2.0 0.00 0.00 0.00 72 1007.8
20260903142337 88 315 0.0 2.0 0.00 0.00 0.00 72 1007.7
20260903141334 88 82 0.0 2.0 0.00 0.00 0.00 72 1007.2
20260903140330 88 239 0.0 2.0 0.00 0.00 0.00 71 1006.9
20260903135841 88 119 1.0 3.0 0.00 0.00 0.00 69 1006.8
20260903134323 88 53 1.0 4.0 0.00 0.00 0.00 71 1006.8
20260903133325 88 78 2.0 3.0 0.00 0.00 0.00 71 1006.9
20260903132319 88 131 1.0 2.0 0.00 0.00 0.00 70 1006.9
20260903131315 89 233 2.0 4.0 0.00 0.00 0.00 70 1007.0
20260903130324 89 349 2.0 4.0 0.00 0.00 0.00 70 1006.6
20260903125306 89 43 4.0 5.0 0.00 0.00 0.00 69 1006.4
20260903124300 89 15 0.0 5.0 0.00 0.00 0.00 68 1006.7
20260903123301 89 273 2.0 6.0 0.00 0.00 0.00 67 1006.4
20260903122255 89 54 2.0 6.0 0.00 0.00 0.00 67 1006.0
20260903121251 89 242 1.0 8.0 0.00 0.00 0.00 68 1006.0
20260903120248 90 238 5.0 10.0 0.00 0.00 0.00 68 1005.7
20260903115249 90 254 3.0 11.0 0.00 0.00 0.00 68 1005.6
20260903114246 90 213 2.0 8.0 0.00 0.00 0.00 68 1005.1
20260903113244 90 323 2.0 5.0 0.00 0.00 0.00 65 1005.0
20260903112239 90 249 1.0 5.0 0.00 0.00 0.00 64 1004.3
20260903111235 90 260 0.0 6.0 0.00 0.00 0.00 62 1004.0
20260903110231 90 288 3.0 5.0 0.00 0.00 0.00 61 1003.9
20260903105226 90 285 2.0 3.0 0.00 0.00 0.00 60 1003.8
20260903104222 90 257 0.0 5.0 0.00 0.00 0.00 60 1003.8
20260903103218 91 261 2.0 6.0 0.00 0.00 0.00 60 1003.7
20260903102717 91 268 3.0 6.0 0.00 0.00 0.00 59 1003.5
20260903101211 91 304 0.0 6.0 0.00 0.00 0.00 59 1003.5
20260903100206 91 271 4.0 6.0 0.00 0.00 0.00 59 1003.6
20260903095204 91 321 2.0 5.0 0.00 0.00 0.00 60 1003.6
20260903094205 91 331 0.0 4.0 0.00 0.00 0.00 60 1003.6
20260903093206 90 287 2.0 5.0 0.00 0.00 0.00 60 1003.7
20260903092204 90 261 2.0 7.0 0.00 0.00 0.00 60 1003.7
20260903091205 90 297 0.0 8.0 0.00 0.00 0.00 60 1003.6
20260903090203 90 251 3.0 4.0 0.00 0.00 0.00 60 1003.7
20260903085203 90 302 2.0 5.0 0.00 0.00 0.00 60 1003.9
20260903084204 90 256 3.0 6.0 0.00 0.00 0.00 61 1004.0
20260903083207 90 327 2.0 8.0 0.00 0.00 0.00 60 1004.1
20260903082644 90 233 3.0 6.0 0.00 0.00 0.00 61 1004.3
20260903081203 90 290 2.0 7.0 0.00 0.00 0.00 61 1004.5
20260903080202 90 262 1.0 9.0 0.00 0.00 0.00 61 1004.7
20260903075650 90 263 2.0 5.0 0.00 0.00 0.00 61 1004.8
20260903074202 90 271 3.0 5.0 0.00 0.00 0.00 61 1004.9
20260903073204 90 207 2.0 7.0 0.00 0.00 0.00 61 1005.1
20260903072203 90 263 2.0 8.0 0.00 0.00 0.00 62 1005.5
20260903071204 90 295 3.0 6.0 0.00 0.00 0.00 62 1005.4
20260903070203 90 295 3.0 9.0 0.00 0.00 0.00 62 1005.7
20260903065202 90 299 2.0 10.0 0.00 0.00 0.00 62 1005.9
20260903064204 89 269 2.0 8.0 0.00 0.00 0.00 63 1006.2
20260903063205 89 235 4.0 7.0 0.00 0.00 0.00 63 1006.2
20260903062203 89 269 2.0 6.0 0.00 0.00 0.00 63 1006.5
20260903061203 89 333 4.0 10.0 0.00 0.00 0.00 63 1006.8
20260903060203 89 319 3.0 8.0 0.00 0.00 0.00 63 1007.0
20260903055203 89 326 2.0 8.0 0.00 0.00 0.00 63 1007.2
20260903054202 89 279 4.0 7.0 0.00 0.00 0.00 63 1007.2
20260903053203 89 54 2.0 9.0 0.00 0.00 0.00 63 1007.4
20260903052203 89 255 9.0 10.0 0.00 0.00 0.00 63 1007.6
20260903051202 89 279 2.0 8.0 0.00 0.00 0.00 63 1007.8
20260903050203 88 272 4.0 8.0 0.00 0.00 0.00 64 1007.9
20260903045203 88 284 6.0 9.0 0.00 0.00 0.00 65 1008.1
20260903044203 88 304 0.0 9.0 0.00 0.00 0.00 65 1008.2
20260903043642 88 252 3.0 6.0 0.00 0.00 0.00 65 1008.2
20260903042206 88 268 5.0 9.0 0.00 0.00 0.00 65 1008.2
20260903041204 88 220 1.0 8.0 0.00 0.00 0.00 65 1008.4
20260903040202 88 262 2.0 8.0 0.00 0.00 0.00 65 1008.6
20260903035203 88 301 4.0 8.0 0.00 0.00 0.00 66 1008.6
20260903034203 87 291 3.0 10.0 0.00 0.00 0.00 66 1008.6
20260903033642 87 262 5.0 8.0 0.00 0.00 0.00 67 1008.6
20260903032645 87 242 7.0 9.0 0.00 0.00 0.00 67 1008.7
20260903031202 87 291 2.0 11.0 0.00 0.00 0.00 68 1008.6
20260903030203 86 269 3.0 11.0 0.00 0.00 0.00 68 1008.8
20260903025202 86 237 6.0 6.0 0.00 0.00 0.00 68 1008.8
20260903024203 86 27 2.0 6.0 0.00 0.00 0.00 69 1008.8
20260903023202 86 259 3.0 9.0 0.00 0.00 0.00 69 1008.9
20260903022856 86 257 3.0 5.0 0.00 0.00 0.00 69 1008.9
20260903021334 85 6 2.0 4.0 0.00 0.00 0.00 69 1008.9
20260903020333 85 332 1.0 8.0 0.00 0.00 0.00 69 1008.9
20260903015846 85 322 2.0 7.0 0.00 0.00 0.00 70 1009.0
20260903014848 85 214 3.0 9.0 0.00 0.00 0.00 70 1009.0
20260903014325 85 268 2.0 7.0 0.00 0.00 0.00 70 1009.1
20260903012319 85 2 2.0 8.0 0.00 0.00 0.00 70 1009.0
20260903011322 85 321 3.0 6.0 0.00 0.00 0.00 71 1008.9
20260903010321 85 274 2.0 6.0 0.00 0.00 0.00 71 1008.7
20260903005310 85 228 2.0 5.0 0.00 0.00 0.00 70 1008.8
20260903004308 85 172 0.0 6.0 0.00 0.00 0.00 70 1008.6
20260903003304 85 211 2.0 6.0 0.00 0.00 0.00 70 1008.4
20260903002306 85 238 0.0 6.0 0.00 0.00 0.00 69 1008.3
20260903001301 85 334 1.0 5.0 0.00 0.00 0.00 70 1008.2
20260903000303 85 278 2.0 6.0 0.00 0.00 0.00 70 1007.9
20260902235256 85 209 1.0 6.0 0.00 0.00 0.00 70 1007.8
20260902234253 85 223 3.0 5.0 0.00 0.00 0.00 69 1007.6
20260902233252 85 246 2.0 6.0 0.00 0.00 0.00 69 1007.5
20260902232243 85 257 6.0 6.0 0.00 0.00 0.00 69 1007.4
20260902231237 85 280 1.0 6.0 0.00 0.00 0.00 69 1007.5